CST,Max TemperatureF,Mean TemperatureF,Min TemperatureF,Max Dew PointF,MeanDew PointF,Min DewpointF,Max Humidity, Mean Humidity, Min Humidity, Max Sea Level PressureIn, Mean Sea Level PressureIn, Min Sea Level PressureIn, Max VisibilityMiles, Mean VisibilityMiles, Min VisibilityMiles, Max Wind SpeedMPH, Mean Wind SpeedMPH, Max Gust SpeedMPH,PrecipitationIn, CloudCover, Events, WindDirDegrees
2014-1-1,5,-1,-7,-6,-11,-17,71,61,52,30.46,30.41,30.38,10,10,10,6,3,,0.00,8,,44
2014-1-2,5,-6,-16,-8,-12,-22,84,66,47,30.47,30.43,30.38,10,10,10,7,2,,0.00,2,,322
2014-1-3,26,5,-16,19,0,-22,84,71,52,30.37,29.92,29.51,10,10,5,20,8,34,0.00,5,,160
2014-1-4,35,19,1,30,10,-8,93,67,52,30.22,29.84,29.46,10,10,2,20,9,26,0.00,3,,307
2014-1-5,1,-6,-16,-9,-18,-27,71,60,43,30.36,30.30,30.22,10,9,2,15,7,21,0.00,2,,318
2014-1-6,-9,-14,-20,-22,-27,-33,70,59,49,30.28,30.23,30.18,10,8,2,18,10,24,0.00,2,,295
2014-1-7,5,-8,-20,-9,-17,-27,84,65,47,30.26,30.17,30.12,10,10,7,8,3,,0.00,0,,298
2014-1-8,3,-6,-16,-11,-15,-22,84,70,51,30.48,30.41,30.26,10,10,10,6,2,,0.00,0,,342
2014-1-9,37,10,-18,34,-3,-26,93,73,49,30.44,30.23,29.87,10,9,4,14,6,20,0.00,5,Rain,140
2014-1-10,28,24,19,28,25,18,100,95,86,29.94,29.69,29.49,5,2,1,12,8,16,0.00,8,,141
2014-1-11,32,24,17,28,25,16,100,90,80,29.70,29.57,29.46,10,5,2,13,5,17,0.00,6,,288
2014-1-12,41,30,19,30,26,18,93,79,61,29.66,29.48,29.38,10,10,4,13,6,18,0.00,1,,196
2014-1-13,33,27,21,28,23,16,93,77,55,29.67,29.60,29.48,10,9,2,17,6,21,0.00,3,,293
2014-1-14,30,19,6,27,16,1,100,80,62,30.09,29.77,29.46,10,5,0,17,9,25,0.00,5,,342
2014-1-15,24,8,-9,16,2,-15,86,75,57,30.12,29.92,29.45,10,9,2,16,7,25,0.00,3,,244
2014-1-16,35,22,8,32,12,-2,93,71,50,29.83,29.56,29.35,10,9,2,23,9,32,0.00,7,,302
2014-1-17,12,4,-4,3,-1,-8,85,70,57,30.01,29.94,29.83,10,10,5,13,8,18,0.00,2,Snow,305
2014-1-18,21,12,3,12,8,0,92,78,68,29.94,29.78,29.58,10,8,1,17,8,23,0.00,6,Snow,85
2014-1-19,39,28,17,27,22,12,86,71,56,29.74,29.57,29.43,10,10,10,13,7,24,0.00,2,,281
2014-1-20,30,14,-2,25,8,-18,80,67,43,30.41,30.01,29.70,10,10,3,16,8,24,0.00,6,Snow,353
2014-1-21,3,-8,-20,-2,-14,-26,78,62,46,30.45,30.29,30.01,10,9,3,7,3,,0.00,3,Snow,218
2014-1-22,8,2,-5,3,-7,-17,85,64,43,30.44,30.10,29.94,10,7,1,17,7,28,0.00,5,Snow,321
2014-1-23,-5,-10,-16,-11,-18,-22,84,68,55,30.71,30.57,30.25,10,10,3,12,7,,0.00,1,,293
2014-1-24,33,13,-7,30,14,-13,100,69,48,30.23,29.69,29.45,10,9,1,16,8,24,0.00,7,Snow,268
2014-1-25,30,16,3,18,-7,-11,85,49,32,29.89,29.75,29.51,10,9,1,21,13,33,0.00,2,Snow,306
2014-1-26,19,8,-2,12,-1,-15,85,69,45,30.02,29.56,29.37,10,6,1,26,10,40,0.02,6,Snow,318
2014-1-27,-4,-9,-14,-15,-21,-26,77,58,45,30.40,30.31,30.04,10,10,10,18,12,28,0.00,0,,297
2014-1-28,0,-11,-22,-11,-18,-29,77,67,50,30.38,30.26,30.11,10,10,7,15,5,22,0.00,0,,286
2014-1-29,32,9,-14,16,-2,-20,84,60,40,30.10,29.86,29.59,10,10,3,14,5,24,0.00,0,,198
2014-1-30,30,15,-2,25,11,-9,93,69,53,30.04,29.66,29.45,10,7,0,18,8,25,0.18,4,Snow,295
2014-1-31,8,-5,-18,-6,-12,-26,84,69,48,30.18,30.09,30.04,10,10,4,8,4,,0.00,0,,236